Wind_Speed
41 40 39 38 38 37 36 36 34 33 32 31 30 29 29 29 28 27 26 25 25 24 24 23 23 22 22 22 22 21 20 20 20 20 19 18 18 18 17 17 17 16 16 17 17 17 16 16 15 15 14 13 13 12 12 11 10 10 10 10 10 10 10 9 9 9 9 8 8 8 9 8 8 9 10 11 12 12 12 13 14 15 15 15 14 14 13 14
43 42 41 40 39 38 37 36 35 34 33 32 31 31 30 30 29 28 27 26 26 25 25 24 23 23 22 22 22 22 22 22 21 21 20 20 19 19 19 18 18 17 17 17 17 17 16 16 16 15 14 14 13 12 12 11 11 10 10 10 10 10 10 10 10 10 10 10 9 10 10 9 9 10 11 12 13 13 13 14 14 15 15 16 15 15 15 15
44 43 42 41 40 40 39 38 37 36 35 34 33 32 32 31 30 29 28 28 27 26 26 25 24 23 23 23 23 23 23 23 22 22 21 21 20 20 20 19 19 18 18 18 18 17 16 16 16 15 14 13 13 12 12 11 11 11 11 10 11 11 10 11 11 11 11 11 10 10 11 10 11 11 12 13 14 14 15 15 14 15 16 16 16 16 15 15
45 44 44 43 42 41 40 39 38 37 36 35 34 33 33 32 31 30 29 29 28 27 26 26 25 24 24 24 24 24 24 24 23 23 22 22 21 21 20 20 20 19 19 18 18 17 17 16 16 15 14 13 13 12 11 11 11 11 11 11 11 11 11 12 12 12 12 12 11 11 11 11 12 13 13 14 15 15 16 16 15 15 15 16 16 16 16 16
47 46 45 44 43 42 41 40 39 38 38 37 36 35 34 33 32 31 30 30 29 28 27 27 26 26 26 26 26 26 25 25 24 24 23 23 22 21 21 21 20 19 19 19 18 17 17 16 15 14 14 13 12 12 11 11 11 11 11 11 11 12 11 12 12 12 13 12 12 11 12 12 13 14 14 15 16 16 17 17 16 15 15 16 17 17 17 17
49 47 46 45 44 43 42 41 40 39 39 38 37 36 36 35 34 33 32 31 30 29 29 28 27 27 27 27 27 27 27 27 25 25 24 23 23 22 22 21 21 20 20 19 19 17 17 16 15 14 14 13 13 12 12 12 11 11 11 11 11 11 11 12 12 13 13 13 12 12 12 12 13 14 15 16 16 17 17 18 18 17 17 17 17 17 17 17
50 49 48 47 45 44 43 42 41 40 40 39 39 38 37 36 36 35 33 32 31 31 30 29 29 29 29 29 29 28 28 27 26 26 25 24 24 23 22 22 21 21 21 20 19 18 17 16 16 15 14 14 13 12 12 12 11 10 11 11 10 11 11 12 13 13 13 13 13 13 13 13 14 14 16 18 17 17 18 18 19 19 18 18 18 18 18 17
51 50 49 48 47 46 45 43 42 41 41 40 40 39 39 38 37 37 35 34 33 32 31 31 30 30 30 31 30 30 29 28 28 27 26 26 25 24 23 23 22 22 21 20 19 18 17 17 16 16 15 14 13 12 12 11 11 10 10 10 10 10 11 12 13 13 13 13 13 14 14 14 14 15 18 19 18 18 18 19 20 21 21 20 19 19 19 19
52 51 50 50 49 48 46 45 44 43 42 42 41 41 40 40 39 38 37 36 35 34 33 32 32 32 32 32 32 32 31 30 29 28 28 27 26 25 25 24 24 23 22 21 20 19 18 18 17 16 15 14 14 13 12 12 11 11 10 10 10 11 11 12 12 12 13 13 13 14 14 14 14 15 19 20 19 18 19 20 20 21 22 22 21 20 20 20
52 52 51 51 49 49 48 46 45 44 44 43 43 42 42 41 41 40 39 38 36 35 34 34 34 34 34 34 33 33 33 31 31 30 29 28 28 27 26 26 25 24 23 22 21 20 20 19 18 17 16 15 15 14 14 13 13 12 12 12 12 12 12 12 12 12 12 13 14 15 14 14 15 17 20 21 19 19 20 21 21 22 23 23 23 22 21 21
52 52 51 51 50 49 48 48 47 46 45 45 45 44 43 43 42 42 41 40 38 37 36 35 35 35 35 35 35 35 34 33 33 32 30 30 29 28 28 27 26 26 25 24 23 22 21 20 19 18 17 17 17 16 15 15 15 14 14 14 14 14 14 13 13 12 13 14 15 16 15 15 16 19 21 21 20 20 21 22 23 23 24 24 24 23 23 22
50 51 51 51 50 50 49 48 47 47 46 46 46 46 45 45 44 44 43 42 40 39 37 36 36 36 36 36 36 36 35 35 34 33 32 31 30 30 29 28 28 27 26 25 24 23 23 22 21 20 19 18 18 18 17 17 17 16 16 16 16 16 15 15 15 14 15 15 16 17 15 15 18 20 21 21 21 22 22 23 24 24 25 24 24 24 24 23
49 50 51 51 50 50 49 48 47 47 47 47 47 47 47 46 46 45 45 44 42 41 39 38 37 37 37 37 38 38 37 36 36 35 34 33 32 32 31 30 29 28 27 27 26 25 24 23 23 21 21 20 20 19 19 18 18 18 18 18 18 18 17 17 18 17 17 17 17 19 16 15 20 21 20 22 22 23 23 23 24 25 25 24 24 24 24 24
47 48 49 50 50 50 49 49 48 47 47 47 47 47 47 47 47 47 46 45 44 42 41 39 38 38 38 38 39 39 39 38 37 37 36 35 34 33 33 32 31 30 29 28 27 27 26 25 24 23 22 22 22 21 21 20 20 20 20 20 20 19 19 20 20 19 20 19 19 21 17 15 21 23 22 23 23 23 24 24 24 25 25 24 23 23 24 24
45 46 48 49 50 50 50 49 49 48 47 47 47 48 48 48 48 48 47 47 45 44 43 41 40 39 40 39 40 41 40 39 39 38 38 37 36 35 34 33 33 32 31 30 29 28 27 26 25 24 24 23 23 23 22 22 22 22 22 22 22 21 21 21 22 22 22 23 22 24 21 17 21 24 24 25 25 24 24 24 25 25 25 24 23 24 24 25
45 45 46 47 48 49 50 50 50 49 49 48 48 48 48 49 49 49 49 48 47 46 45 43 42 41 41 41 41 42 42 41 41 40 40 39 38 37 36 35 35 33 32 32 31 30 29 28 27 26 25 25 25 24 24 24 23 24 24 23 22 22 22 22 23 24 25 26 25 26 25 20 21 25 26 26 26 26 25 25 25 25 25 25 25 25 25 26
46 46 46 46 46 47 48 49 50 50 50 50 50 49 48 48 49 49 49 49 48 48 47 46 44 43 43 42 42 43 44 43 42 42 41 41 40 40 39 37 37 36 35 34 33 32 31 30 29 28 27 26 25 25 26 25 24 25 24 23 23 23 24 24 25 26 27 28 28 29 27 23 24 26 27 27 28 27 26 26 26 26 26 27 27 26 26 26
47 46 46 46 46 46 47 47 48 49 50 50 51 51 50 50 49 49 49 49 49 49 49 48 47 46 45 43 43 44 44 44 44 44 43 43 43 42 41 40 39 38 37 36 35 34 33 32 31 30 28 27 27 28 28 27 25 25 24 24 24 25 25 25 26 28 29 31 31 31 29 26 26 28 28 29 29 27 27 27 28 28 28 28 28 28 27 27
50 49 48 47 46 46 46 47 47 48 49 49 50 50 51 51 51 51 50 50 50 50 50 49 49 48 46 44 44 44 45 46 46 46 46 45 45 44 43 42 41 41 39 38 37 36 35 34 33 31 29 29 29 30 29 27 26 26 26 26 26 25 26 26 27 29 31 32 33 33 32 30 28 28 29 30 29 28 27 28 29 29 29 29 29 28 27 27
53 52 51 49 48 48 47 47 47 47 48 48 48 49 50 51 51 52 52 52 51 51 51 50 50 50 49 47 46 46 46 48 48 48 48 47 47 46 45 44 44 43 41 40 39 38 37 36 34 32 30 31 32 31 30 29 28 28 27 27 27 27 27 27 29 30 32 34 34 34 35 34 31 29 29 31 31 29 29 30 30 30 30 29 28 27 27 28
56 55 53 52 51 50 49 48 47 47 47 47 47 48 48 49 50 51 52 52 53 53 53 53 52 52 51 50 49 48 48 49 49 50 50 49 49 48 47 47 46 44 43 42 41 40 39 38 35 33 33 33 33 32 31 30 30 30 29 29 29 29 29 29 31 32 34 36 35 35 37 36 34 31 30 31 31 31 31 32 31 30 29 29 28 27 28 28
58 57 55 54 53 52 51 50 49 48 48 47 46 46 47 48 49 50 51 52 53 54 55 55 54 54 53 53 51 50 50 50 50 51 51 51 51 50 49 49 48 47 46 45 44 43 42 39 35 34 35 35 35 34 33 32 32 31 31 31 31 31 31 31 33 34 36 38 38 38 39 39 37 34 32 31 32 32 32 32 30 29 29 27 27 29 29 28
61 59 58 56 55 54 53 52 51 49 49 48 47 47 47 48 48 49 51 51 52 53 54 54 55 55 55 54 53 52 52 51 51 52 52 53 52 52 52 51 50 50 49 47 46 45 43 40 37 37 37 36 36 36 35 34 33 33 33 33 32 32 33 34 34 35 37 39 41 41 42 42 39 36 33 32 34 34 33 32 30 28 28 28 28 28 28 28
61 60 60 59 58 56 55 53 52 51 51 49 49 49 49 48 49 50 50 51 52 51 52 53 54 54 54 54 54 54 53 53 53 53 54 54 54 54 54 53 52 52 50 49 47 46 44 41 40 39 38 38 37 36 36 36 36 35 34 34 34 34 35 36 37 38 38 40 43 44 47 46 40 37 34 32 35 35 34 33 31 28 29 29 28 27 27 27
59 59 59 59 60 59 58 56 54 53 52 51 51 51 50 50 50 50 51 52 52 51 50 51 51 51 51 52 53 53 54 54 53 54 55 55 55 55 55 54 54 53 51 50 49 48 45 44 43 42 40 39 38 37 37 38 38 37 35 35 35 36 37 38 39 40 41 42 43 45 51 51 43 37 34 33 36 36 33 33 32 30 30 30 28 27 27 27
56 57 57 57 58 59 60 59 58 57 55 53 54 53 52 52 52 52 52 54 54 51 49 50 50 50 50 50 51 51 52 53 52 53 54 55 56 56 56 55 54 53 52 51 51 50 47 45 44 43 41 40 39 39 39 38 38 38 37 37 37 38 39 40 41 42 44 45 45 47 50 54 50 40 35 35 37 35 33 32 32 31 31 30 29 28 28 28
52 53 54 55 54 55 58 60 61 60 57 56 56 54 53 53 53 53 52 55 56 51 49 50 50 49 48 48 49 49 51 51 50 52 53 54 55 55 56 55 54 53 52 51 52 51 48 46 44 43 42 41 41 41 40 39 40 40 39 39 39 40 41 42 42 43 45 47 50 50 48 54 57 46 37 38 37 35 32 31 31 31 31 30 29 29 30 30
50 51 53 54 53 53 55 59 60 59 59 60 58 57 56 55 56 55 55 58 58 53 50 50 49 50 49 49 48 49 51 49 49 50 51 52 54 54 55 55 54 53 52 52 53 51 50 48 46 45 45 44 43 41 41 41 41 41 41 41 41 42 43 43 44 45 46 50 54 51 48 53 58 51 44 41 37 34 33 29 28 29 30 30 30 30 31 31
46 48 50 52 53 52 54 56 57 59 61 60 60 60 59 59 59 57 58 61 59 55 53 51 50 50 50 50 50 50 50 50 50 50 50 52 53 54 54 54 53 53 52 53 53 51 51 50 48 47 46 45 44 43 43 42 42 42 43 44 44 44 44 44 46 47 49 54 56 51 48 52 58 56 49 42 38 36 34 29 26 26 28 30 30 31 31 32
44 44 45 48 50 50 51 51 53 58 60 60 61 62 61 62 62 61 63 62 58 57 57 54 52 51 51 51 50 51 51 51 50 50 51 52 52 53 53 53 53 53 53 53 53 52 52 51 50 49 47 45 44 44 44 43 44 44 44 45 45 45 45 46 48 49 52 57 56 51 50 52 57 58 50 43 41 40 36 30 26 25 27 30 30 31 32 33
46 45 45 46 45 45 47 48 49 53 56 58 59 60 61 62 63 66 67 62 59 62 61 57 55 53 52 52 52 52 52 52 52 51 52 51 52 53 52 52 53 53 53 53 52 52 52 51 50 49 46 45 44 45 46 46 46 45 45 46 46 47 47 48 51 51 54 57 55 52 53 54 57 57 51 46 44 42 37 30 26 24 25 27 29 31 33 33
49 46 44 43 44 44 44 45 45 48 53 56 56 57 59 62 64 67 64 58 60 65 62 59 58 56 55 55 55 54 54 54 54 54 54 53 53 53 52 52 51 51 52 52 51 51 52 51 50 49 49 48 47 47 48 48 47 46 45 45 46 47 50 53 55 54 55 56 54 54 57 58 58 55 51 48 44 42 38 31 26 25 24 25 28 31 33 34
55 50 45 42 43 44 43 43 43 45 48 50 52 55 59 65 67 63 58 57 61 62 58 59 60 60 60 59 58 57 56 56 55 55 56 55 55 54 53 53 53 53 54 53 52 53 52 52 51 52 52 51 50 49 49 48 47 46 45 46 47 50 54 57 57 57 56 56 55 57 60 61 59 53 49 47 43 39 38 34 31 29 28 29 31 32 33 35
58 56 53 48 44 43 44 45 45 44 44 45 48 53 58 66 66 59 55 56 58 58 56 58 60 60 62 62 61 60 59 58 58 57 57 57 57 56 55 55 55 55 54 54 54 54 55 55 53 53 53 52 51 49 49 48 47 48 48 50 52 54 55 57 57 57 58 58 58 60 61 60 57 53 50 46 41 37 36 36 35 34 33 33 32 32 32 34
58 58 59 57 52 48 46 45 45 46 46 45 48 54 58 60 59 56 55 54 55 56 57 59 60 59 59 60 62 63 62 62 61 60 60 60 59 58 56 56 55 55 54 55 55 55 56 56 54 53 53 52 51 50 49 49 50 51 52 54 56 56 55 55 56 58 60 62 62 62 61 59 56 54 52 47 41 37 36 36 37 39 38 36 34 33 34 34
58 58 59 59 59 56 53 50 47 47 48 49 51 56 57 55 52 51 50 50 53 55 55 58 60 58 58 58 59 61 63 64 64 63 63 62 61 60 59 57 56 56 56 55 56 56 57 57 55 54 54 53 53 52 52 53 54 55 57 58 58 57 55 55 58 60 62 64 65 63 60 57 55 53 49 46 41 38 37 37 38 41 41 40 39 39 39 38
59 59 59 58 58 59 59 56 52 50 52 53 56 57 55 53 50 47 46 48 52 54 55 59 60 58 57 56 56 57 59 61 63 64 64 64 64 63 61 60 59 58 57 56 57 57 58 58 58 57 57 56 56 56 56 57 58 60 61 61 59 58 59 60 61 62 64 66 66 64 61 57 54 49 44 42 41 40 40 40 41 42 41 42 42 44 45 44
60 60 59 57 57 58 60 60 57 54 54 56 58 58 57 54 50 47 46 47 51 53 55 58 60 60 59 58 57 55 56 58 60 62 63 65 67 65 63 63 62 60 58 58 59 59 60 61 61 61 61 61 61 61 62 62 63 64 63 62 61 62 63 63 63 63 64 66 67 65 61 55 50 46 42 41 42 43 43 43 43 42 42 43 44 46 47 46
63 63 60 58 58 58 59 61 61 59 58 59 58 56 56 54 52 51 49 47 48 51 53 53 55 58 60 60 60 59 59 59 59 59 61 62 64 65 64 63 63 62 60 59 60 60 60 61 63 65 65 65 65 66 66 66 65 65 64 64 64 64 65 64 64 63 62 64 66 65 62 52 43 43 42 42 43 44 45 46 45 43 44 45 46 45 45 44
65 65 62 59 59 60 60 62 62 61 63 63 60 57 55 53 53 55 53 50 49 51 51 50 51 54 55 56 57 57 59 61 61 61 61 61 60 61 61 61 62 62 60 59 59 58 59 61 64 66 67 67 68 68 68 65 64 63 63 64 64 63 64 62 62 62 61 61 61 62 62 52 43 44 44 43 45 46 47 48 46 45 46 46 45 44 44 43
67 67 65 62 62 62 63 64 64 63 64 64 60 57 56 54 54 55 54 55 54 53 53 52 53 53 52 52 51 51 53 56 58 60 62 62 61 60 60 59 59 59 59 60 60 59 60 61 62 64 66 67 66 65 64 62 62 61 61 62 63 61 60 60 61 62 60 58 55 56 59 50 43 46 47 46 48 49 48 48 46 47 48 47 46 46 46 44
69 69 67 65 64 64 66 67 66 65 66 66 62 59 58 58 58 56 56 56 55 54 56 57 56 55 53 52 50 51 52 51 52 54 56 58 60 60 60 60 60 60 60 61 61 60 60 60 62 63 65 65 63 62 62 61 61 60 61 63 62 62 62 61 62 59 56 55 52 54 57 48 41 45 47 47 50 50 47 47 49 50 50 50 49 48 47 45
70 70 69 68 67 66 68 70 70 69 69 68 66 65 63 61 61 61 59 58 56 55 57 59 58 56 55 52 50 51 52 52 53 52 50 50 52 53 56 59 61 61 62 63 64 63 61 61 62 64 64 64 63 62 62 61 62 63 65 65 63 62 61 59 57 55 55 56 54 57 59 49 42 44 44 46 50 49 47 48 51 53 52 52 52 50 48 45
70 70 70 69 68 68 70 72 72 71 70 69 70 71 69 66 65 64 61 60 59 59 58 58 59 58 57 56 53 50 50 51 54 54 51 49 47 47 49 53 56 58 59 60 60 60 60 61 61 62 64 65 65 66 66 66 66 66 64 62 61 59 58 58 58 59 60 59 56 60 62 53 46 44 44 46 48 47 48 51 52 53 53 52 52 51 49 46
70 71 71 70 70 71 70 71 71 71 71 71 72 73 73 72 71 68 65 63 63 62 61 60 59 60 60 60 58 54 52 52 52 52 52 50 48 47 48 50 53 53 53 53 53 54 56 58 60 62 65 67 68 69 68 66 65 63 61 60 58 56 56 57 56 58 60 58 57 62 63 54 49 47 46 46 47 48 51 54 56 55 54 53 53 52 50 47
70 73 73 72 72 73 71 69 70 72 72 72 74 75 75 74 73 70 69 69 67 64 62 61 61 62 63 63 62 59 57 55 55 55 54 53 51 50 50 50 50 51 50 50 49 50 51 53 56 59 62 64 64 64 64 62 61 61 60 59 57 55 54 52 52 56 58 58 60 62 60 55 51 50 49 49 50 53 56 58 58 56 55 55 54 51 49 48
69 72 73 73 73 73 73 71 70 72 73 73 75 76 75 75 74 73 73 72 70 67 64 62 62 64 66 66 64 62 60 58 58 58 57 57 56 54 52 51 49 48 48 49 49 49 50 51 53 55 57 55 53 55 58 58 58 58 58 58 57 57 56 55 57 58 57 59 61 57 55 56 52 49 51 52 52 55 58 59 58 57 56 55 53 51 51 49
70 71 71 73 74 74 73 72 71 72 72 73 75 76 76 76 75 76 76 74 72 71 70 68 66 65 65 65 65 65 62 60 60 61 60 60 59 58 55 53 51 48 48 50 51 51 52 54 53 55 56 52 49 51 54 54 55 56 56 56 56 57 57 58 60 58 56 61 62 55 55 59 54 49 52 53 54 58 59 58 57 56 55 54 53 54 53 51
71 70 70 72 75 75 74 72 71 72 72 72 74 75 76 77 76 76 76 75 75 74 74 74 71 67 65 65 66 67 65 63 62 61 60 60 59 59 57 54 53 51 49 51 53 53 54 54 53 55 58 55 52 54 55 55 57 58 58 58 57 57 58 59 59 58 59 63 63 58 60 62 55 52 55 54 55 57 56 54 54 55 55 55 55 55 54 53
73 71 71 71 73 75 75 74 73 72 72 72 73 74 74 76 76 76 76 77 77 76 76 75 73 70 69 69 69 70 68 65 64 61 59 60 60 60 58 56 55 55 53 53 55 57 59 57 54 55 58 55 51 53 55 56 58 60 60 60 59 59 59 60 60 59 61 65 63 60 63 63 56 54 54 52 53 54 52 52 53 54 54 54 54 55 54 54
74 73 73 74 74 74 75 76 75 74 72 70 69 70 72 74 74 75 76 77 77 76 76 75 72 71 73 74 74 72 69 67 65 62 60 61 61 61 60 57 57 59 59 58 58 58 59 59 55 55 60 58 52 51 53 53 54 57 59 58 57 57 58 60 60 59 60 62 60 59 62 61 54 50 48 49 52 53 52 52 51 52 53 54 55 55 55 55
73 74 75 76 77 76 76 76 76 76 75 71 67 66 68 71 72 73 75 77 78 77 77 76 74 73 75 77 76 71 68 68 68 67 65 64 63 63 62 60 59 59 60 60 60 60 59 59 56 55 57 57 54 55 56 54 57 60 58 54 53 56 58 58 58 57 57 58 59 60 61 57 52 49 51 53 53 52 52 52 51 52 53 55 57 57 56 56
Wind_Direction
210 210 210 210 211 211 211 212 213 214 215 215 214 213 212 211 211 211 212 212 213 213 212 211 210 209 208 208 209 209 206 203 202 201 201 200 200 200 200 199 198 198 198 199 201 201 203 205 207 208 209 211 213 214 216 217 218 220 223 228 235 244 253 262 272 281 287 292 295 291 290 295 304 310 313 315 318 321 323 322 322 320 319 316 312 307 301 297
211 211 212 212 212 213 214 215 215 217 217 217 216 214 213 213 213 213 214 214 214 214 213 212 211 210 209 209 209 207 204 203 203 202 202 202 202 201 201 201 201 201 201 202 203 203 204 206 207 208 208 210 212 215 216 217 218 221 223 229 238 247 256 264 273 281 286 290 289 286 287 292 299 307 312 315 318 321 323 322 322 322 320 318 313 307 301 296
212 212 213 213 214 215 216 217 218 219 220 219 218 216 215 214 214 215 216 216 216 215 214 213 212 211 210 209 207 205 203 203 203 202 202 203 203 202 202 202 202 202 203 204 205 205 205 206 207 208 208 209 211 214 216 218 221 224 227 233 242 251 260 267 273 279 283 285 284 284 285 289 298 305 310 314 318 321 322 321 322 323 322 319 315 309 302 295
214 214 215 215 216 217 218 219 220 222 222 222 220 219 217 216 216 217 217 217 217 217 215 214 212 211 210 208 206 204 203 204 203 202 203 204 204 203 203 203 203 204 204 205 205 205 204 205 206 206 207 209 211 214 218 222 227 231 236 241 249 256 262 268 272 277 279 280 279 280 283 290 297 303 309 312 316 319 319 319 321 322 321 319 316 310 303 295
216 217 217 218 219 219 220 221 221 222 223 222 222 220 219 218 218 218 219 219 219 218 217 215 213 212 209 207 205 204 204 205 204 204 204 204 203 203 203 203 203 203 203 204 204 203 202 202 203 205 206 210 213 217 223 229 234 240 245 249 254 258 263 267 271 273 274 275 276 277 282 289 295 301 305 307 312 315 316 318 319 320 321 320 317 312 305 297
219 219 219 220 220 221 222 222 223 223 223 222 222 221 220 219 219 220 220 221 221 220 219 216 214 212 209 207 206 205 206 207 206 205 204 203 203 203 202 202 202 201 201 202 203 201 201 203 205 207 210 214 217 222 227 234 239 244 249 253 258 262 265 267 269 271 274 276 277 279 282 287 294 299 302 304 308 311 314 316 316 318 321 320 318 314 308 301
222 222 222 222 222 222 223 223 224 224 223 223 222 221 221 220 220 221 221 221 222 221 220 218 215 213 210 208 207 207 208 208 207 206 205 205 204 204 203 203 202 201 201 203 203 203 204 206 208 211 214 217 220 225 229 236 241 246 253 259 263 267 268 269 271 274 277 279 280 281 284 288 292 297 300 301 304 309 312 314 314 317 318 318 317 315 311 305
224 224 224 224 224 224 224 224 224 225 224 224 223 222 222 221 221 221 222 222 222 222 221 219 217 214 211 210 209 209 210 210 209 208 207 207 206 206 206 205 204 204 204 205 206 206 207 209 212 213 215 219 222 227 232 238 244 250 256 262 267 271 273 273 275 278 280 281 283 284 285 288 292 298 299 297 302 308 310 311 313 315 315 315 315 314 312 308
225 225 225 225 225 225 225 226 226 226 226 225 225 224 223 223 222 222 223 223 223 223 222 221 218 215 212 211 210 211 212 211 211 210 209 210 209 208 208 207 207 207 208 208 208 210 211 213 216 217 218 221 224 230 235 241 247 252 258 262 267 271 274 277 280 282 283 284 285 284 285 288 292 296 294 294 302 307 307 309 310 311 312 312 312 311 310 307
224 225 226 226 226 226 226 226 227 227 226 226 226 226 225 224 224 224 224 224 224 224 224 223 220 217 214 212 212 213 213 212 213 213 211 212 212 210 210 210 210 210 211 211 211 213 215 218 220 222 223 225 229 233 238 243 249 254 258 262 265 269 272 275 279 282 284 285 285 283 285 288 291 291 289 294 303 305 305 307 307 308 308 309 309 308 307 304
223 224 225 226 226 227 227 227 227 227 227 226 226 226 226 225 225 225 224 225 225 226 226 225 223 219 216 213 213 215 215 214 215 215 214 214 214 214 213 213 213 214 214 214 215 216 219 222 225 227 228 231 234 237 242 247 251 255 259 262 265 268 271 274 278 281 283 284 284 283 286 289 288 286 288 296 302 302 304 305 306 306 306 306 305 304 303 301
223 224 225 225 226 227 227 228 228 227 227 227 226 226 226 226 226 225 225 225 225 226 227 227 225 222 219 215 215 217 216 216 217 217 216 215 216 217 217 217 217 218 218 219 219 220 222 225 228 231 233 236 239 241 246 250 253 257 261 264 267 270 273 276 280 282 283 284 285 284 286 290 286 285 291 297 299 300 303 305 305 306 305 304 303 301 300 298
224 224 225 225 226 226 227 227 227 227 227 227 227 227 227 227 227 227 226 226 226 226 227 228 227 225 221 219 218 218 218 218 219 219 219 218 218 219 220 220 220 221 222 223 224 224 225 227 230 234 237 240 243 245 249 253 256 259 263 265 268 270 275 278 281 284 285 286 285 283 286 289 286 288 293 296 298 301 304 306 307 306 305 304 302 299 297 295
225 225 225 225 226 226 227 227 227 227 227 227 227 227 227 228 228 228 228 227 227 227 228 228 229 227 224 222 221 220 220 220 220 221 221 221 220 220 221 223 223 224 225 226 227 228 229 230 232 236 239 242 246 249 251 254 258 260 262 264 266 270 275 278 281 283 284 284 283 282 285 288 288 292 294 295 298 302 306 308 307 305 304 304 302 298 295 293
225 225 226 226 226 227 227 227 227 227 227 227 227 227 227 227 228 228 228 228 228 228 228 229 230 229 228 226 224 222 222 222 222 222 223 223 223 223 223 224 225 226 227 229 230 231 233 234 235 237 240 243 246 250 253 255 258 260 261 263 267 272 275 277 280 281 282 282 282 283 286 288 290 293 294 296 300 303 308 309 307 305 303 303 301 298 295 293
226 226 226 227 227 227 228 228 228 228 227 227 227 227 227 227 227 228 228 228 229 229 229 229 230 231 230 229 226 225 224 224 224 224 224 225 226 225 226 226 227 228 230 231 232 234 235 236 238 239 242 244 247 250 253 256 258 260 262 266 270 273 274 275 276 278 280 281 282 283 285 290 290 291 294 297 301 305 309 310 308 305 301 300 299 298 297 295
227 227 227 228 228 228 228 228 229 229 229 228 228 228 228 228 228 228 228 229 229 229 229 230 231 231 231 230 229 228 227 226 226 226 226 227 228 228 228 228 229 230 232 233 234 236 237 239 241 242 244 246 249 252 254 256 258 261 265 269 271 271 272 274 276 277 278 279 281 281 285 290 290 290 294 298 301 306 311 311 308 304 300 299 298 298 296 294
227 228 228 228 229 229 228 229 229 230 230 230 229 229 229 229 230 230 230 230 230 230 230 230 231 232 232 232 231 231 231 229 228 228 228 228 229 230 230 230 231 232 233 235 236 237 239 241 242 244 246 247 250 252 254 257 260 264 267 269 270 271 273 276 277 277 277 278 280 281 284 286 287 291 296 297 300 307 311 310 306 302 300 299 299 297 295 292
227 227 228 229 229 230 229 229 229 230 230 230 231 231 231 231 231 231 231 231 231 232 232 232 232 232 232 233 233 233 233 231 230 229 229 230 230 231 231 232 233 234 235 236 237 238 240 242 244 245 247 248 250 252 255 259 262 264 267 268 271 273 275 277 277 276 277 278 279 282 284 284 286 292 296 297 300 307 310 307 303 302 301 300 299 297 294 290
228 227 227 228 229 230 230 230 230 230 231 231 231 232 232 232 232 232 232 232 232 233 233 233 233 233 233 233 233 233 233 232 231 231 231 231 231 232 232 233 234 235 236 237 239 240 241 243 244 246 247 249 251 253 256 259 262 264 267 270 272 274 276 277 277 277 278 278 279 282 282 283 286 290 294 297 301 306 307 304 303 303 301 299 296 294 292 289
229 228 227 227 228 229 229 230 231 231 231 231 231 232 233 233 233 233 232 232 233 233 233 233 234 234 235 235 234 234 234 234 233 232 232 232 232 233 234 234 235 236 237 238 240 240 242 243 245 247 248 250 253 255 257 260 262 265 268 270 272 274 276 278 279 280 280 279 280 282 281 283 285 288 292 297 301 304 303 302 303 302 299 296 293 290 289 290
228 229 229 228 227 228 229 229 230 231 232 232 232 232 233 233 234 234 233 233 233 233 233 233 234 234 235 236 236 236 236 236 235 234 234 233 234 234 235 235 236 237 238 238 240 241 242 244 245 247 249 252 254 256 258 260 262 265 268 270 273 275 277 278 280 282 282 282 282 282 281 281 283 286 291 297 300 301 301 301 301 298 295 290 286 286 288 290
230 229 229 229 229 229 229 229 230 231 232 232 232 232 233 233 234 234 234 234 233 233 233 233 234 234 235 237 237 237 237 237 236 235 235 234 234 235 235 235 236 237 238 239 241 242 243 245 246 247 250 252 255 257 259 261 263 265 267 269 272 275 277 278 280 282 283 284 284 284 282 279 282 286 291 297 299 299 301 301 299 295 291 285 282 285 287 287
234 232 230 230 230 230 230 230 230 231 231 232 233 233 233 234 234 235 235 235 233 233 234 234 234 234 235 237 237 237 237 237 237 236 236 235 235 236 236 236 237 238 240 241 242 243 244 245 247 249 251 253 255 258 260 261 262 263 265 269 271 274 276 279 281 281 282 283 284 286 284 279 282 287 291 298 298 299 301 302 300 293 286 282 281 283 284 284
236 236 234 233 232 231 232 232 231 231 231 232 233 233 234 234 235 235 236 236 234 232 233 235 235 235 236 237 237 237 237 237 237 238 237 237 237 237 237 237 238 240 241 242 243 244 245 247 249 250 251 253 255 257 258 260 261 262 264 268 271 273 276 278 280 281 282 283 284 286 284 282 283 285 291 296 295 296 302 304 302 293 283 279 279 279 281 282
237 237 238 237 236 235 234 233 233 233 232 232 233 233 234 235 236 236 237 238 236 232 232 234 235 236 236 238 238 239 239 237 237 238 238 238 238 238 238 238 239 241 242 243 244 245 246 248 250 251 252 253 255 256 257 259 260 262 264 267 270 273 276 277 279 281 283 284 284 283 284 285 284 285 290 291 290 294 301 303 300 292 282 278 277 278 279 281
234 236 237 238 239 239 238 235 234 234 233 234 234 234 235 235 236 237 238 240 238 233 233 235 235 236 236 238 239 240 240 238 238 239 238 239 239 240 240 240 240 241 243 244 245 245 247 249 250 252 252 253 254 256 257 258 260 263 266 268 270 272 275 276 278 281 282 284 283 282 286 287 284 286 289 287 287 293 299 301 297 290 283 277 276 277 280 283
230 233 236 237 238 239 239 237 236 235 235 235 235 235 236 236 237 237 238 241 239 235 234 235 236 237 236 237 237 239 240 238 238 239 239 239 240 240 241 241 241 242 243 244 245 245 246 247 249 250 252 254 256 256 257 259 262 264 266 268 270 272 273 275 278 279 282 282 280 283 289 288 285 287 288 285 288 295 299 300 293 287 281 275 275 277 281 285
226 229 233 236 236 236 237 237 236 236 236 236 236 237 237 237 238 238 239 240 240 238 237 236 236 238 238 238 237 238 240 238 237 237 237 239 239 240 240 241 242 242 243 244 245 245 246 248 249 251 253 255 256 257 258 261 263 265 266 268 270 271 272 275 277 279 281 279 279 284 289 289 286 285 284 287 293 297 299 297 287 280 275 272 273 277 281 284
224 226 229 232 233 234 235 236 236 237 238 238 238 238 239 239 240 240 240 240 241 241 240 237 236 237 239 240 239 239 240 239 239 238 237 238 239 240 240 241 242 243 244 245 245 246 247 248 250 251 253 255 256 258 260 262 263 265 266 267 269 271 273 275 276 278 278 277 281 286 288 288 285 281 284 291 295 296 298 294 283 273 269 269 271 276 280 284
227 227 229 230 229 230 233 235 236 237 239 241 242 242 243 242 241 241 241 242 244 243 242 240 238 237 239 241 241 240 241 241 240 240 239 239 240 241 241 242 243 245 246 247 247 249 250 250 252 253 254 255 256 258 259 260 262 263 265 267 270 272 274 274 274 275 276 278 284 287 287 286 280 279 286 293 294 296 297 293 283 273 267 266 270 274 277 279
229 229 230 231 228 226 228 230 231 233 235 239 242 243 244 244 242 243 244 245 245 245 245 244 242 240 239 239 240 240 241 241 241 241 242 241 241 241 242 243 244 246 247 248 249 250 250 251 252 252 252 253 254 255 258 260 262 264 266 268 271 272 272 272 273 274 276 280 285 285 285 282 276 278 286 291 293 295 294 290 282 275 273 270 269 270 272 274
230 229 228 229 228 225 225 224 224 228 230 232 235 238 240 241 242 245 247 246 246 247 247 247 246 243 241 240 240 240 241 242 242 242 243 243 242 241 241 242 243 245 246 247 248 249 249 249 250 252 253 254 256 257 260 262 264 265 266 267 267 268 270 271 274 276 278 281 282 281 281 278 276 280 285 288 290 290 289 289 283 277 275 273 273 274 276 277
232 230 229 229 228 226 226 225 224 228 229 226 229 234 236 238 240 243 244 244 246 248 247 248 248 246 244 242 242 242 242 243 243 243 244 244 244 243 243 243 244 246 248 248 249 251 252 251 252 254 256 257 258 259 261 262 262 262 263 264 264 267 269 272 275 277 279 280 279 278 278 276 278 283 285 285 286 285 285 285 283 280 277 277 280 284 285 284
233 232 231 231 231 229 226 226 227 230 230 227 231 234 233 235 238 240 241 242 244 245 244 246 247 246 245 244 243 243 243 243 243 243 244 245 246 246 245 246 247 248 249 250 251 253 254 254 254 256 257 257 258 259 259 260 260 261 262 263 265 268 270 271 273 275 277 278 277 277 276 276 280 282 283 284 284 283 280 278 279 280 281 284 287 289 290 289
234 234 232 232 233 233 231 229 230 233 232 229 234 238 236 234 235 237 239 241 243 243 243 245 247 246 245 244 244 243 244 244 244 244 245 245 245 246 246 246 247 248 249 251 252 253 254 254 254 254 255 255 257 257 258 259 260 261 262 264 266 268 269 270 272 273 275 276 276 277 276 277 279 278 278 282 282 279 275 275 276 279 283 288 291 293 296 295
233 234 234 233 232 233 233 232 232 234 234 232 234 237 237 236 234 234 237 239 240 241 240 242 245 245 244 244 244 244 245 245 245 246 246 246 245 245 246 247 248 249 250 251 253 253 254 255 254 254 255 255 256 257 258 259 260 262 263 265 267 268 268 270 271 272 274 275 276 276 276 276 276 274 276 281 279 275 273 274 276 278 280 285 290 296 298 296
233 233 233 233 232 232 232 231 231 233 234 236 236 235 234 235 233 233 235 237 239 240 239 240 243 244 244 244 243 242 243 243 243 244 245 246 245 244 245 246 247 249 250 251 253 253 254 255 254 254 255 256 256 257 258 259 261 262 264 266 267 268 269 270 271 272 274 275 275 274 274 273 272 273 277 278 275 273 275 277 278 278 279 284 291 295 294 292
233 233 233 232 232 232 231 230 230 231 232 235 238 236 235 234 233 233 234 235 237 238 239 240 243 245 245 245 244 244 244 243 242 243 243 244 245 244 245 246 247 248 249 251 252 253 253 254 254 254 255 256 256 257 258 259 261 263 265 266 267 268 270 270 271 271 272 274 274 273 271 268 268 273 275 274 272 274 276 276 276 277 281 287 291 292 291 290
233 232 231 231 232 232 231 230 230 230 232 233 234 234 235 236 236 235 235 237 237 237 237 239 242 244 246 247 247 247 248 247 245 244 244 244 244 244 245 246 247 247 248 249 250 251 252 253 253 253 254 255 256 258 260 261 262 263 264 265 266 266 268 268 269 269 270 270 271 273 272 267 265 270 270 270 272 274 274 274 276 280 283 287 290 290 290 290
234 232 230 230 232 232 231 231 229 229 231 232 232 232 232 234 237 237 235 237 239 239 237 238 240 243 244 247 249 250 251 251 249 248 246 245 244 244 244 246 247 247 247 248 248 249 252 253 254 254 255 256 258 259 260 260 261 261 261 262 263 264 264 264 265 265 267 269 272 276 275 268 265 267 267 267 269 270 271 274 278 281 283 286 289 289 288 287
235 233 230 229 231 232 232 231 230 230 231 232 232 232 231 230 233 235 234 234 237 238 237 236 238 240 241 243 247 249 251 253 254 253 251 249 247 245 245 247 249 249 249 250 250 250 253 254 254 253 253 254 255 255 256 256 257 258 258 259 259 260 260 261 263 266 269 272 273 275 273 268 265 267 267 266 268 268 271 276 279 281 283 286 288 288 287 287
235 233 231 231 231 231 232 232 230 230 231 232 232 232 232 230 231 234 235 235 235 237 237 236 236 238 239 240 243 247 248 249 251 252 252 252 249 247 247 247 249 250 250 250 250 251 251 252 253 254 253 253 253 253 254 254 255 255 256 257 258 260 262 264 267 269 269 269 270 271 270 268 267 268 267 265 268 271 274 278 280 281 283 286 287 287 287 287
234 234 233 234 234 232 232 233 232 232 232 233 233 233 232 232 232 232 234 235 235 236 238 238 236 237 240 240 242 244 244 245 247 248 250 251 250 249 250 250 250 251 252 252 252 252 252 252 253 254 254 253 252 252 252 253 254 256 258 259 261 265 267 267 268 269 269 268 269 269 267 267 267 267 265 264 268 274 278 280 281 281 284 286 286 284 284 286
233 233 233 234 235 233 233 233 234 234 233 233 234 234 234 233 233 233 233 234 235 235 237 238 237 238 241 242 243 244 244 245 247 248 248 250 250 250 251 252 253 254 254 254 254 254 254 254 253 254 254 253 253 254 256 257 260 262 262 263 266 267 268 269 270 269 268 266 264 263 264 266 267 266 264 265 270 276 280 281 281 282 283 283 283 283 284 285
233 233 232 233 235 235 234 233 234 235 234 233 234 235 235 235 235 234 234 234 235 235 236 237 237 237 239 242 243 244 245 246 248 248 247 246 247 249 250 251 252 253 254 254 254 256 256 255 255 256 256 256 256 257 259 260 261 262 261 262 264 263 263 263 262 262 264 263 260 262 266 269 268 266 266 267 271 276 279 279 279 280 281 282 284 285 284 284
234 233 232 233 235 236 235 233 233 235 235 234 235 235 235 236 235 235 234 234 235 235 235 236 235 236 238 240 243 244 244 245 247 248 247 245 245 248 250 249 250 250 252 253 253 253 252 251 252 255 257 256 256 257 257 257 258 260 261 261 262 261 259 257 257 262 266 264 263 267 271 269 266 265 266 267 269 272 274 276 278 280 282 284 285 284 284 284
235 234 232 233 235 235 236 235 234 235 236 235 236 236 235 236 235 235 235 235 235 235 236 235 234 235 236 238 242 244 244 244 244 245 246 246 246 248 249 250 249 248 249 252 253 252 251 249 250 253 255 255 255 256 256 256 258 260 260 261 260 259 258 258 262 268 268 266 269 272 269 266 266 264 264 266 268 271 273 277 280 281 282 282 282 283 284 285
235 236 234 234 235 235 235 235 234 235 235 236 237 237 236 236 236 236 237 237 236 235 236 237 236 237 238 238 240 242 243 244 245 245 246 248 248 249 250 250 249 248 248 250 252 253 255 254 253 252 253 252 252 254 256 257 258 259 259 259 258 257 257 260 264 267 265 264 269 270 267 267 268 266 267 269 271 273 275 276 277 277 277 279 281 282 283 283
235 235 235 235 235 235 235 236 235 234 234 235 237 237 237 237 236 236 237 238 238 237 237 237 238 238 239 239 240 241 242 244 246 247 248 250 250 250 251 251 250 250 250 250 250 252 254 256 256 255 255 253 251 253 254 255 256 257 256 256 255 256 259 261 263 263 262 263 268 269 267 267 268 269 271 272 271 270 270 270 271 273 275 277 278 278 279 281
236 236 235 235 235 235 235 236 236 236 234 234 236 237 238 238 238 237 238 238 238 238 238 238 238 239 240 240 241 242 242 243 245 246 248 250 250 249 250 251 250 250 250 250 251 252 254 256 257 256 255 255 254 254 254 255 256 256 254 254 257 259 260 261 261 262 262 265 267 266 265 266 268 270 270 268 266 267 268 270 271 272 274 275 275 276 277 279
236 236 236 237 236 235 234 235 236 236 235 233 234 235 237 239 239 239 239 239 238 238 239 238 237 238 239 240 241 242 243 244 245 245 246 248 249 249 248 247 247 248 250 251 252 254 254 255 255 253 253 253 253 253 255 256 257 256 255 258 261 261 259 259 259 260 262 263 262 262 264 267 268 267 266 266 267 270 272 272 271 271 271 272 273 275 276 277
Height
5801 5803 5805 5807 5809 5811 5813 5815 5816 5818 5820 5821 5823 5824 5826 5828 5829 5831 5832 5834 5835 5837 5838 5839 5840 5842 5843 5844 5846 5847 5848 5850 5851 5852 5853 5854 5855 5856 5857 5858 5859 5860 5861 5862 5863 5864 5865 5866 5867 5868 5869 5870 5871 5872 5873 5874 5875 5875 5876 5876 5876 5877 5877 5877 5878 5878 5878 5878 5879 5879 5879 5879 5878 5878 5878 5877 5877 5877 5877 5877 5877 5876 5876 5876 5876 5876 5875 5875
5798 5800 5803 5805 5807 5809 5811 5813 5815 5816 5818 5820 5821 5823 5824 5826 5827 5829 5830 5832 5833 5835 5836 5838 5839 5841 5842 5843 5844 5846 5847 5849 5850 5851 5852 5853 5854 5855 5856 5857 5858 5859 5860 5861 5862 5863 5864 5865 5866 5867 5868 5869 5870 5871 5872 5873 5874 5874 5875 5875 5876 5876 5876 5876 5877 5877 5877 5877 5877 5877 5878 5878 5877 5877 5877 5876 5876 5876 5876 5876 5876 5876 5875 5875 5875 5874 5874 5874
5795 5797 5800 5802 5804 5806 5808 5810 5812 5814 5816 5818 5819 5821 5822 5824 5826 5827 5828 5830 5831 5833 5834 5836 5837 5839 5840 5842 5843 5845 5846 5848 5849 5850 5851 5852 5853 5854 5855 5856 5857 5858 5859 5860 5861 5863 5864 5864 5865 5866 5867 5868 5869 5870 5871 5872 5873 5873 5874 5875 5875 5875 5875 5876 5876 5876 5876 5876 5876 5876 5876 5877 5876 5876 5876 5875 5875 5875 5875 5875 5875 5875 5874 5874 5874 5873 5873 5873
5792 5794 5796 5799 5801 5803 5806 5808 5810 5812 5814 5816 5817 5819 5821 5822 5824 5825 5826 5828 5829 5831 5832 5834 5836 5837 5839 5840 5842 5844 5845 5846 5848 5849 5850 5851 5852 5853 5854 5855 5856 5857 5858 5859 5861 5862 5863 5864 5865 5866 5867 5868 5869 5869 5870 5871 5872 5872 5873 5874 5874 5874 5875 5875 5875 5875 5875 5875 5875 5875 5875 5875 5875 5875 5875 5874 5874 5874 5874 5874 5874 5874 5874 5873 5872 5872 5872 5871
5789 5791 5793 5796 5798 5801 5803 5805 5807 5809 5811 5813 5815 5817 5819 5820 5822 5823 5825 5826 5828 5829 5831 5832 5834 5836 5837 5839 5840 5842 5844 5845 5846 5848 5849 5850 5851 5852 5853 5854 5855 5856 5858 5858 5859 5861 5862 5863 5864 5865 5866 5867 5868 5868 5869 5870 5871 5871 5872 5873 5873 5873 5874 5874 5874 5873 5873 5874 5874 5874 5875 5875 5874 5874 5874 5874 5874 5874 5873 5873 5873 5873 5873 5872 5871 5871 5870 5870
5786 5788 5791 5793 5795 5797 5800 5802 5804 5806 5808 5810 5812 5814 5816 5818 5819 5821 5822 5824 5826 5827 5829 5830 5832 5834 5836 5837 5839 5841 5842 5843 5845 5846 5848 5849 5850 5851 5852 5853 5854 5856 5857 5857 5858 5860 5861 5862 5863 5864 5865 5866 5867 5867 5868 5869 5869 5870 5871 5871 5872 5872 5872 5872 5872 5872 5872 5873 5873 5873 5874 5874 5873 5873 5873 5872 5873 5873 5872 5871 5871 5871 5871 5871 5870 5870 5869 5868
5783 5785 5787 5789 5792 5794 5796 5799 5801 5803 5805 5807 5809 5811 5813 5815 5817 5818 5820 5822 5823 5825 5827 5829 5830 5832 5834 5836 5837 5839 5840 5842 5844 5845 5846 5847 5849 5850 5851 5852 5853 5855 5855 5856 5858 5859 5860 5861 5862 5863 5864 5865 5866 5866 5867 5868 5868 5869 5870 5870 5870 5871 5871 5871 5871 5871 5871 5872 5872 5872 5872 5873 5872 5872 5871 5871 5871 5871 5871 5870 5869 5869 5869 5869 5869 5868 5868 5867
5779 5781 5784 5786 5788 5791 5793 5795 5798 5800 5802 5804 5806 5808 5810 5812 5814 5816 5818 5819 5821 5822 5824 5826 5828 5830 5832 5834 5836 5837 5839 5841 5842 5844 5845 5846 5847 5849 5850 5851 5852 5853 5854 5856 5857 5858 5859 5860 5861 5862 5863 5863 5864 5865 5866 5866 5867 5868 5868 5869 5869 5869 5869 5870 5870 5870 5870 5871 5871 5871 5871 5871 5871 5871 5870 5869 5870 5870 5869 5869 5868 5867 5867 5867 5867 5866 5866 5865
5775 5778 5780 5782 5785 5787 5790 5792 5794 5797 5799 5801 5803 5805 5807 5809 5811 5813 5815 5817 5818 5820 5822 5824 5826 5828 5830 5832 5834 5835 5837 5839 5841 5842 5843 5845 5846 5847 5849 5850 5851 5852 5853 5854 5856 5857 5858 5858 5859 5860 5861 5862 5863 5864 5865 5865 5866 5867 5867 5868 5868 5868 5868 5868 5869 5869 5869 5869 5870 5869 5870 5870 5870 5870 5868 5868 5869 5869 5868 5868 5867 5866 5865 5865 5865 5864 5864 5864
5771 5774 5776 5779 5781 5783 5786 5788 5791 5793 5796 5798 5800 5802 5804 5806 5808 5810 5812 5814 5816 5818 5820 5822 5824 5826 5828 5830 5832 5833 5835 5837 5838 5840 5842 5843 5844 5846 5847 5848 5850 5851 5852 5853 5854 5855 5856 5857 5858 5859 5860 5861 5862 5863 5863 5864 5865 5865 5865 5866 5866 5867 5867 5867 5868 5868 5868 5868 5868 5868 5869 5869 5869 5868 5866 5867 5868 5867 5866 5866 5865 5865 5864 5863 5863 5862 5862 5862
5767 5770 5773 5775 5778 5780 5782 5785 5787 5789 5792 5794 5796 5799 5801 5803 5805 5807 5809 5811 5813 5815 5817 5819 5821 5824 5825 5828 5830 5831 5833 5835 5836 5838 5840 5841 5843 5844 5845 5847 5848 5849 5850 5851 5853 5854 5854 5855 5856 5857 5858 5859 5860 5861 5862 5862 5863 5863 5864 5864 5865 5865 5865 5866 5866 5867 5867 5867 5867 5867 5867 5868 5867 5866 5865 5865 5866 5865 5865 5864 5864 5863 5863 5862 5861 5861 5860 5860
5764 5766 5769 5771 5774 5776 5779 5781 5783 5785 5788 5790 5793 5795 5797 5799 5802 5804 5806 5808 5810 5812 5815 5817 5819 5821 5823 5826 5827 5828 5831 5832 5834 5836 5838 5839 5841 5842 5844 5845 5846 5847 5848 5849 5851 5852 5853 5854 5854 5855 5856 5858 5859 5860 5860 5861 5861 5862 5862 5862 5863 5863 5864 5864 5865 5865 5866 5866 5865 5865 5866 5866 5865 5864 5864 5864 5864 5863 5863 5862 5862 5861 5861 5860 5859 5859 5858 5857
5760 5763 5765 5768 5770 5773 5775 5777 5780 5782 5784 5787 5789 5792 5794 5796 5798 5801 5803 5805 5807 5810 5812 5814 5816 5818 5821 5823 5824 5826 5828 5830 5832 5834 5835 5837 5838 5840 5842 5843 5844 5845 5846 5848 5849 5850 5851 5852 5853 5854 5854 5856 5857 5858 5859 5859 5860 5860 5860 5861 5861 5861 5862 5862 5863 5863 5864 5864 5864 5863 5864 5865 5862 5862 5863 5862 5861 5861 5861 5860 5860 5859 5858 5858 5857 5856 5856 5855
5756 5758 5761 5764 5767 5769 5772 5774 5776 5778 5781 5783 5785 5788 5790 5793 5795 5797 5800 5802 5804 5807 5809 5811 5813 5815 5818 5820 5822 5823 5825 5827 5829 5831 5833 5835 5836 5838 5839 5841 5842 5843 5844 5845 5846 5848 5849 5850 5851 5852 5852 5853 5854 5855 5856 5857 5858 5858 5858 5859 5859 5860 5860 5860 5861 5861 5861 5861 5861 5860 5862 5863 5860 5860 5860 5860 5859 5859 5859 5858 5858 5857 5856 5855 5855 5854 5853 5853
5751 5754 5757 5760 5763 5765 5768 5770 5773 5775 5777 5779 5781 5784 5786 5789 5791 5794 5796 5799 5801 5803 5806 5808 5810 5812 5815 5817 5819 5820 5822 5824 5826 5828 5830 5832 5833 5835 5837 5838 5839 5841 5842 5843 5844 5845 5846 5848 5849 5849 5850 5851 5852 5853 5854 5855 5856 5856 5856 5856 5857 5858 5859 5858 5858 5858 5858 5858 5858 5858 5859 5861 5859 5857 5857 5857 5857 5857 5857 5856 5856 5855 5854 5853 5852 5852 5851 5850
5747 5750 5753 5756 5759 5761 5764 5767 5769 5772 5774 5776 5778 5780 5782 5785 5787 5790 5792 5795 5797 5800 5802 5804 5806 5809 5811 5814 5816 5818 5819 5821 5823 5825 5827 5829 5831 5832 5834 5835 5837 5838 5839 5840 5842 5843 5844 5845 5846 5847 5848 5849 5850 5851 5852 5852 5853 5853 5854 5855 5856 5856 5856 5856 5856 5855 5855 5855 5855 5855 5856 5859 5857 5855 5855 5855 5855 5855 5855 5854 5853 5853 5852 5851 5850 5849 5849 5848
5743 5746 5749 5752 5754 5757 5760 5763 5766 5768 5770 5772 5775 5777 5779 5781 5783 5786 5789 5791 5793 5796 5798 5800 5803 5805 5807 5810 5813 5814 5815 5818 5820 5822 5824 5826 5827 5829 5831 5833 5834 5835 5836 5838 5839 5840 5841 5843 5844 5845 5846 5847 5848 5848 5849 5850 5850 5851 5852 5853 5853 5853 5853 5853 5853 5853 5852 5852 5852 5852 5853 5855 5854 5853 5853 5852 5852 5852 5852 5852 5851 5850 5849 5848 5848 5847 5847 5846
5739 5742 5745 5748 5751 5754 5756 5759 5761 5764 5766 5768 5771 5773 5775 5778 5780 5782 5785 5787 5789 5792 5794 5797 5799 5801 5804 5807 5809 5810 5812 5815 5817 5819 5821 5822 5824 5825 5827 5829 5831 5832 5833 5834 5836 5837 5839 5840 5841 5842 5843 5844 5845 5845 5846 5847 5848 5849 5850 5850 5850 5851 5851 5851 5851 5850 5849 5849 5849 5849 5850 5852 5851 5850 5850 5850 5850 5850 5850 5849 5848 5847 5846 5846 5845 5844 5844 5843
5735 5738 5741 5744 5747 5749 5752 5755 5757 5759 5762 5764 5767 5769 5772 5774 5776 5779 5781 5783 5786 5788 5790 5792 5795 5797 5800 5803 5805 5807 5809 5811 5813 5815 5817 5818 5820 5822 5824 5826 5827 5828 5830 5831 5833 5834 5835 5837 5838 5839 5841 5841 5842 5842 5843 5845 5846 5847 5847 5847 5847 5848 5848 5848 5847 5847 5847 5846 5846 5846 5846 5848 5849 5849 5848 5847 5847 5848 5848 5846 5845 5844 5844 5843 5842 5841 5841 5841
5731 5733 5736 5739 5742 5745 5748 5750 5753 5755 5757 5760 5763 5765 5768 5770 5772 5774 5777 5779 5781 5783 5785 5788 5791 5793 5796 5798 5800 5802 5804 5807 5809 5811 5812 5814 5816 5818 5820 5822 5823 5825 5827 5828 5829 5831 5832 5833 5835 5837 5837 5838 5838 5840 5841 5843 5843 5844 5844 5844 5845 5845 5845 5845 5844 5844 5844 5843 5843 5844 5842 5843 5846 5847 5846 5844 5845 5845 5845 5843 5842 5842 5841 5840 5839 5839 5838 5838
5726 5729 5732 5734 5737 5740 5743 5746 5749 5751 5753 5757 5759 5761 5764 5766 5767 5769 5772 5774 5775 5778 5781 5783 5786 5789 5791 5794 5796 5798 5800 5802 5805 5807 5809 5811 5812 5814 5816 5818 5820 5822 5823 5824 5825 5827 5828 5830 5833 5833 5834 5834 5836 5837 5839 5840 5840 5841 5841 5841 5842 5842 5842 5841 5840 5841 5840 5839 5840 5840 5839 5840 5842 5843 5844 5843 5843 5843 5842 5840 5840 5839 5838 5837 5836 5835 5835 5835
5721 5725 5728 5730 5733 5736 5738 5742 5744 5747 5750 5752 5755 5757 5759 5760 5762 5764 5767 5768 5770 5773 5776 5779 5782 5785 5787 5789 5792 5795 5797 5798 5801 5803 5805 5807 5809 5810 5812 5814 5816 5817 5819 5820 5821 5823 5824 5828 5830 5829 5830 5831 5832 5834 5835 5836 5837 5838 5838 5838 5839 5838 5838 5838 5837 5837 5836 5835 5836 5836 5835 5835 5837 5839 5841 5841 5840 5840 5839 5838 5838 5836 5835 5834 5833 5832 5832 5832
5716 5719 5723 5726 5729 5731 5734 5737 5740 5743 5745 5748 5750 5752 5753 5755 5757 5759 5761 5763 5765 5768 5771 5774 5777 5780 5782 5785 5787 5790 5792 5794 5796 5798 5801 5803 5804 5805 5808 5810 5811 5812 5814 5816 5818 5819 5822 5825 5825 5825 5827 5828 5829 5831 5832 5833 5834 5834 5834 5835 5835 5835 5834 5834 5834 5834 5833 5832 5831 5831 5829 5830 5833 5836 5839 5839 5837 5837 5836 5835 5835 5834 5832 5831 5830 5830 5830 5829
5711 5714 5717 5721 5724 5727 5730 5733 5736 5739 5741 5744 5745 5746 5748 5751 5752 5753 5755 5757 5760 5764 5767 5770 5772 5776 5778 5780 5782 5785 5787 5789 5792 5794 5796 5798 5799 5800 5803 5805 5806 5809 5811 5812 5814 5815 5819 5821 5821 5822 5824 5824 5826 5827 5828 5829 5829 5830 5831 5831 5831 5831 5830 5830 5830 5830 5830 5829 5827 5826 5822 5822 5829 5833 5835 5836 5833 5832 5833 5832 5832 5831 5829 5828 5828 5828 5827 5826
5706 5708 5712 5716 5719 5722 5725 5729 5732 5734 5737 5739 5739 5741 5744 5745 5746 5748 5750 5750 5754 5759 5762 5765 5768 5771 5773 5775 5778 5781 5782 5785 5788 5789 5791 5793 5794 5796 5799 5800 5802 5805 5807 5808 5809 5812 5816 5817 5817 5819 5820 5821 5823 5824 5824 5824 5824 5825 5827 5828 5827 5827 5827 5827 5826 5825 5826 5826 5825 5823 5815 5813 5823 5830 5832 5833 5831 5829 5830 5829 5828 5827 5825 5825 5825 5825 5825 5824
5700 5703 5707 5710 5713 5717 5720 5725 5727 5729 5733 5733 5733 5737 5739 5740 5741 5742 5745 5744 5747 5755 5758 5761 5763 5766 5769 5772 5774 5776 5777 5781 5784 5784 5786 5789 5789 5791 5794 5796 5799 5802 5803 5803 5805 5809 5813 5814 5813 5815 5816 5818 5819 5820 5820 5819 5819 5821 5823 5824 5823 5823 5823 5822 5822 5822 5821 5821 5820 5819 5814 5806 5811 5824 5830 5828 5827 5827 5828 5827 5825 5823 5822 5821 5822 5822 5821 5821
5694 5698 5701 5704 5708 5712 5715 5718 5720 5724 5728 5726 5729 5733 5733 5735 5736 5738 5741 5737 5740 5751 5755 5756 5759 5762 5766 5768 5770 5770 5771 5778 5781 5779 5782 5784 5784 5787 5789 5792 5795 5797 5798 5798 5800 5806 5809 5809 5809 5810 5812 5813 5815 5816 5816 5814 5815 5818 5820 5819 5818 5819 5819 5818 5818 5818 5817 5816 5813 5813 5815 5805 5800 5813 5824 5823 5823 5825 5826 5825 5822 5820 5819 5818 5818 5818 5817 5817
5690 5693 5696 5699 5703 5707 5709 5711 5714 5719 5720 5720 5725 5727 5727 5729 5730 5733 5734 5729 5735 5747 5749 5751 5755 5758 5761 5762 5764 5764 5767 5774 5775 5774 5778 5779 5779 5782 5784 5788 5790 5791 5792 5792 5796 5802 5803 5803 5805 5806 5807 5809 5811 5812 5810 5810 5811 5814 5815 5814 5814 5815 5814 5814 5814 5814 5814 5811 5806 5809 5814 5805 5795 5803 5814 5816 5820 5823 5823 5822 5820 5817 5816 5815 5815 5814 5814 5814
5685 5688 5691 5694 5697 5700 5702 5706 5711 5713 5713 5716 5720 5720 5722 5724 5724 5727 5725 5722 5733 5742 5743 5748 5751 5753 5755 5757 5759 5760 5763 5767 5767 5770 5773 5772 5774 5777 5779 5783 5784 5785 5786 5788 5792 5796 5796 5798 5800 5801 5803 5806 5807 5807 5806 5806 5807 5809 5810 5809 5810 5810 5809 5810 5809 5810 5810 5804 5802 5808 5810 5804 5793 5794 5803 5810 5815 5817 5818 5818 5817 5815 5813 5812 5812 5811 5811 5811
5680 5683 5686 5687 5690 5694 5697 5702 5706 5707 5708 5711 5713 5714 5717 5717 5719 5719 5714 5719 5733 5736 5737 5742 5746 5749 5751 5752 5755 5756 5758 5760 5762 5765 5766 5767 5770 5772 5774 5777 5778 5780 5782 5784 5787 5790 5791 5794 5795 5796 5800 5802 5802 5802 5802 5802 5803 5804 5805 5804 5804 5804 5805 5806 5805 5805 5803 5797 5800 5806 5806 5803 5792 5784 5795 5806 5809 5810 5812 5813 5813 5812 5810 5809 5809 5808 5808 5808
5675 5677 5678 5681 5686 5690 5693 5697 5701 5703 5704 5705 5707 5709 5711 5711 5711 5706 5706 5722 5732 5727 5729 5737 5741 5745 5747 5748 5750 5751 5753 5755 5757 5759 5760 5763 5765 5766 5770 5772 5774 5776 5777 5780 5784 5786 5787 5789 5791 5793 5795 5797 5797 5797 5797 5797 5797 5798 5799 5800 5800 5800 5800 5800 5799 5799 5797 5795 5800 5801 5799 5799 5789 5782 5792 5801 5802 5803 5806 5807 5807 5807 5807 5807 5806 5805 5805 5804
5668 5671 5674 5678 5681 5684 5688 5692 5696 5697 5698 5701 5703 5704 5704 5702 5697 5696 5708 5724 5722 5717 5726 5733 5735 5740 5742 5742 5744 5745 5748 5749 5751 5754 5755 5758 5759 5762 5766 5768 5770 5771 5772 5777 5780 5780 5781 5783 5786 5787 5788 5790 5791 5791 5791 5792 5793 5794 5795 5796 5795 5794 5793 5793 5793 5793 5793 5795 5798 5796 5793 5789 5783 5784 5792 5796 5797 5799 5799 5801 5802 5802 5802 5803 5802 5801 5801 5801
5662 5666 5670 5671 5673 5678 5682 5685 5688 5690 5692 5696 5697 5696 5695 5689 5685 5695 5711 5716 5711 5714 5724 5727 5728 5732 5733 5735 5738 5740 5742 5743 5746 5748 5749 5751 5753 5757 5760 5762 5764 5765 5767 5772 5773 5772 5775 5777 5779 5781 5783 5785 5786 5787 5788 5788 5789 5789 5790 5790 5789 5789 5787 5786 5787 5787 5789 5793 5794 5791 5787 5780 5777 5784 5790 5792 5795 5795 5793 5795 5795 5796 5797 5797 5797 5797 5797 5797
5655 5660 5663 5664 5667 5671 5675 5678 5681 5683 5685 5688 5688 5687 5684 5678 5682 5695 5704 5706 5707 5713 5718 5718 5718 5722 5725 5729 5732 5734 5736 5738 5740 5742 5743 5745 5747 5751 5755 5757 5760 5762 5764 5766 5766 5767 5769 5771 5775 5777 5778 5780 5781 5782 5783 5783 5783 5783 5784 5784 5783 5784 5783 5781 5783 5783 5784 5786 5787 5785 5782 5776 5776 5781 5784 5787 5790 5791 5790 5789 5788 5789 5790 5791 5792 5792 5792 5791
5648 5652 5656 5659 5662 5666 5669 5672 5674 5676 5677 5679 5679 5676 5673 5674 5683 5692 5696 5700 5703 5706 5709 5709 5708 5712 5717 5721 5725 5727 5729 5731 5734 5735 5736 5739 5742 5747 5751 5753 5756 5758 5760 5760 5761 5763 5762 5765 5772 5772 5771 5774 5775 5776 5776 5775 5775 5776 5778 5777 5777 5780 5780 5778 5778 5779 5779 5778 5778 5779 5776 5774 5776 5777 5778 5782 5785 5787 5786 5784 5783 5782 5782 5784 5786 5786 5786 5786
5641 5644 5649 5654 5658 5662 5664 5666 5668 5669 5669 5671 5669 5666 5669 5676 5683 5688 5692 5696 5697 5699 5703 5701 5700 5705 5710 5713 5718 5721 5723 5725 5727 5728 5730 5733 5736 5740 5745 5748 5750 5752 5754 5755 5756 5757 5756 5759 5765 5764 5764 5767 5767 5768 5768 5768 5769 5770 5770 5771 5773 5775 5774 5773 5773 5774 5775 5772 5771 5772 5771 5772 5773 5771 5773 5778 5780 5780 5780 5780 5779 5777 5776 5777 5778 5778 5778 5778
5634 5638 5642 5648 5653 5655 5657 5661 5662 5661 5662 5662 5658 5660 5668 5674 5679 5683 5687 5689 5689 5692 5695 5693 5693 5698 5703 5706 5710 5714 5716 5718 5719 5720 5724 5726 5729 5734 5740 5743 5744 5746 5749 5751 5749 5750 5750 5752 5756 5757 5757 5759 5760 5760 5761 5761 5762 5763 5764 5767 5768 5768 5767 5768 5767 5768 5769 5766 5765 5767 5766 5767 5768 5767 5770 5774 5774 5774 5774 5774 5775 5774 5773 5773 5772 5772 5771 5771
5627 5631 5636 5642 5645 5647 5650 5653 5654 5653 5653 5652 5651 5656 5663 5668 5674 5678 5680 5682 5683 5684 5686 5687 5688 5691 5694 5698 5702 5706 5707 5708 5711 5713 5716 5717 5720 5729 5734 5736 5738 5741 5743 5743 5741 5742 5744 5744 5746 5749 5749 5751 5753 5753 5753 5755 5756 5756 5758 5761 5761 5760 5761 5762 5760 5761 5762 5760 5760 5762 5761 5762 5763 5764 5767 5769 5768 5767 5768 5769 5769 5769 5770 5770 5769 5768 5766 5765
5620 5623 5630 5636 5638 5639 5642 5644 5645 5645 5643 5641 5645 5652 5658 5664 5670 5671 5672 5677 5678 5678 5680 5683 5684 5684 5687 5691 5695 5697 5698 5700 5704 5706 5708 5710 5714 5723 5728 5729 5732 5734 5735 5735 5733 5735 5737 5736 5738 5741 5742 5742 5743 5744 5746 5749 5750 5751 5753 5754 5755 5754 5754 5754 5754 5754 5755 5754 5753 5755 5756 5757 5760 5762 5763 5762 5762 5762 5762 5762 5763 5764 5765 5765 5765 5763 5761 5760
5612 5616 5624 5630 5630 5630 5633 5635 5635 5634 5632 5633 5640 5648 5653 5658 5662 5663 5668 5670 5670 5671 5675 5679 5679 5679 5682 5685 5687 5689 5691 5694 5697 5700 5702 5705 5710 5717 5721 5722 5724 5727 5727 5725 5725 5728 5728 5727 5730 5733 5733 5734 5735 5738 5742 5745 5745 5745 5746 5746 5747 5747 5746 5747 5747 5747 5748 5748 5748 5749 5750 5754 5758 5759 5757 5757 5757 5756 5755 5755 5757 5759 5759 5760 5760 5758 5757 5756
5603 5607 5617 5622 5620 5621 5623 5623 5623 5624 5625 5627 5635 5642 5646 5650 5653 5657 5662 5663 5664 5667 5671 5673 5673 5675 5678 5679 5681 5685 5686 5686 5690 5693 5695 5700 5705 5711 5715 5716 5717 5719 5718 5716 5718 5721 5721 5721 5724 5725 5726 5728 5732 5735 5736 5737 5737 5737 5738 5739 5740 5740 5740 5739 5738 5739 5741 5742 5745 5747 5746 5750 5755 5754 5752 5752 5751 5750 5750 5750 5752 5752 5752 5754 5754 5753 5752 5751
5593 5600 5610 5613 5610 5612 5613 5611 5614 5618 5618 5622 5631 5636 5638 5642 5646 5649 5653 5656 5658 5661 5663 5665 5667 5670 5672 5674 5677 5679 5680 5682 5684 5686 5689 5694 5700 5705 5708 5709 5708 5709 5710 5709 5712 5716 5715 5714 5715 5716 5719 5722 5724 5726 5727 5727 5728 5729 5729 5732 5733 5732 5731 5731 5731 5735 5738 5738 5742 5742 5740 5745 5750 5748 5748 5747 5744 5744 5745 5746 5746 5744 5745 5746 5747 5746 5746 5746
5586 5594 5602 5601 5601 5603 5602 5601 5606 5610 5612 5619 5627 5627 5628 5634 5638 5641 5644 5648 5651 5654 5656 5659 5662 5664 5666 5669 5672 5672 5675 5678 5678 5679 5683 5687 5692 5698 5700 5699 5699 5700 5701 5701 5705 5708 5706 5704 5707 5709 5712 5715 5715 5717 5719 5720 5720 5720 5722 5724 5725 5725 5727 5727 5728 5732 5731 5732 5736 5734 5732 5739 5745 5744 5744 5741 5738 5739 5741 5741 5740 5738 5738 5739 5739 5740 5740 5740
5581 5587 5591 5590 5591 5593 5592 5593 5600 5605 5609 5615 5617 5616 5621 5627 5630 5633 5638 5642 5644 5647 5649 5652 5656 5659 5661 5664 5665 5667 5670 5672 5671 5674 5678 5680 5685 5691 5691 5691 5692 5693 5694 5696 5698 5699 5697 5698 5701 5702 5703 5705 5707 5708 5710 5712 5713 5714 5717 5720 5721 5723 5724 5722 5723 5724 5722 5726 5731 5725 5724 5733 5739 5739 5739 5736 5734 5736 5736 5735 5734 5733 5734 5734 5733 5733 5734 5734
5572 5575 5579 5580 5580 5583 5586 5591 5596 5599 5603 5607 5606 5607 5613 5618 5622 5628 5633 5634 5636 5639 5642 5645 5649 5652 5654 5656 5658 5661 5663 5665 5667 5669 5671 5674 5680 5683 5684 5684 5685 5687 5689 5691 5691 5690 5689 5690 5692 5692 5692 5696 5699 5701 5704 5708 5710 5710 5713 5715 5716 5717 5716 5714 5716 5714 5713 5720 5721 5714 5717 5729 5734 5733 5733 5732 5732 5731 5730 5728 5727 5727 5728 5728 5727 5728 5728 5729
5561 5563 5568 5571 5571 5574 5580 5586 5588 5587 5593 5598 5598 5600 5605 5609 5616 5623 5625 5625 5628 5632 5635 5638 5642 5644 5645 5647 5650 5653 5656 5659 5660 5662 5664 5669 5673 5675 5677 5677 5679 5681 5683 5683 5684 5683 5682 5682 5683 5683 5684 5689 5695 5697 5700 5702 5702 5703 5706 5707 5707 5708 5707 5707 5706 5703 5708 5713 5709 5707 5716 5724 5727 5728 5727 5728 5728 5725 5723 5721 5720 5721 5722 5721 5722 5723 5723 5722
5550 5553 5560 5564 5565 5567 5571 5577 5579 5579 5585 5590 5590 5593 5598 5602 5609 5613 5613 5616 5622 5626 5629 5630 5633 5635 5636 5640 5644 5646 5649 5652 5652 5653 5658 5662 5666 5667 5669 5670 5673 5676 5676 5677 5677 5677 5676 5676 5677 5677 5678 5684 5690 5690 5689 5691 5692 5694 5697 5698 5698 5699 5698 5696 5695 5699 5705 5702 5699 5708 5715 5713 5719 5724 5721 5722 5723 5719 5715 5714 5714 5716 5716 5716 5717 5716 5716 5717
5540 5545 5553 5556 5556 5559 5563 5568 5572 5574 5578 5581 5581 5585 5590 5593 5598 5602 5604 5611 5616 5619 5619 5620 5623 5628 5632 5637 5639 5638 5642 5644 5644 5647 5651 5655 5659 5660 5662 5664 5667 5670 5672 5670 5669 5670 5668 5669 5673 5673 5672 5679 5684 5681 5680 5683 5685 5686 5688 5688 5690 5690 5689 5688 5689 5697 5699 5690 5692 5708 5707 5701 5711 5719 5715 5715 5716 5712 5710 5710 5711 5712 5710 5710 5710 5710 5710 5711
5532 5537 5545 5547 5546 5551 5556 5559 5564 5566 5570 5572 5572 5576 5581 5584 5590 5595 5600 5604 5606 5608 5610 5611 5618 5627 5630 5632 5631 5630 5633 5637 5638 5642 5647 5649 5652 5654 5655 5658 5660 5663 5665 5664 5663 5662 5661 5663 5668 5668 5666 5671 5676 5674 5674 5677 5677 5678 5679 5680 5682 5682 5682 5683 5686 5691 5689 5682 5687 5699 5695 5693 5706 5711 5708 5710 5709 5706 5706 5706 5705 5705 5704 5704 5704 5704 5704 5703
5525 5529 5536 5537 5538 5544 5547 5549 5553 5557 5561 5564 5564 5568 5575 5577 5583 5590 5592 5593 5595 5600 5604 5606 5615 5623 5623 5623 5622 5621 5627 5632 5634 5639 5644 5644 5645 5647 5649 5652 5654 5655 5657 5657 5657 5655 5654 5656 5661 5661 5658 5662 5669 5669 5668 5669 5669 5670 5671 5673 5675 5676 5677 5678 5679 5682 5680 5677 5683 5689 5685 5688 5700 5703 5702 5703 5701 5698 5699 5698 5698 5699 5698 5699 5699 5699 5698 5697
5518 5522 5526 5527 5529 5534 5537 5540 5544 5547 5551 5555 5557 5563 5568 5570 5576 5582 5582 5583 5587 5592 5595 5601 5609 5614 5612 5611 5611 5615 5624 5629 5630 5635 5638 5636 5636 5639 5641 5644 5646 5645 5647 5649 5648 5648 5649 5650 5654 5654 5650 5654 5664 5664 5660 5662 5662 5659 5661 5666 5671 5672 5672 5671 5673 5675 5675 5674 5677 5678 5676 5684 5696 5697 5694 5693 5690 5689 5691 5692 5693 5694 5693 5692 5693 5693 5693 5692
5510 5513 5516 5517 5519 5524 5528 5531 5534 5535 5540 5548 5552 5556 5559 5563 5569 5573 5572 5573 5578 5583 5588 5594 5601 5602 5599 5598 5603 5614 5623 5623 5622 5624 5625 5624 5626 5628 5631 5634 5636 5636 5638 5640 5640 5641 5643 5644 5647 5647 5642 5647 5657 5655 5652 5654 5649 5645 5654 5666 5669 5667 5664 5665 5667 5669 5670 5669 5668 5667 5671 5681 5689 5687 5684 5684 5683 5684 5686 5686 5686 5687 5687 5686 5686 5687 5687 5686